User: anonymous   Login
Location: Albany
(35.0000°S, 118.0000°E)
Time: 04:55:36
(UTC-05:00)
Language:

Centaur D-1AR AC-48 - Orbit

View from above orbital plane
View from above orbital plane
View from above satellite
View from above satellite

Ground track
Ground track

The orbit data is extracted from the following two-line orbital elements,

1 10779U 78035B   18047.17104259 -.00000219  00000-0 -23344-3 0  9999
2 10779  21.8570 344.6362 7184503 164.2636 357.1250  2.22651771324121
Epoch (UTC): 16 February 2018 04:06:18
Eccentricity: 0.7184503
inclination: 21.8570°
perigee height: 597 km
apogee height: 36193 km
right ascension of ascending node: 344.6362°
argument of perigee: 164.2636°
revolutions per day: 2.22651771
mean anomaly at epoch: 357.1250°
orbit number at epoch: 32412

The dashed part of the orbit path shows where the satellite is in the earth's shadow,  

DLR